Location: AstroGeek's Observatory
(41.9520°N, 70.9880°W)
Time: 04:06:58
(UTC-04:00)

ISS - All Passes

Search period start: 17 April 2014 00:00
Search period end: 27 April 2014 00:00
Orbit: 414 x 419 km, 51.6° (Epoch: 17 April)

Date Brightness Start Highest point End Pass type
(mag) Time Alt. Az. Time Alt. Az. Time Alt. Az.
17 Apr - 15:49:40 10° SSW 15:52:45 35° SE 15:55:51 10° ENE daylight
17 Apr - 17:26:25 10° W 17:29:31 34° NNW 17:32:37 10° NE daylight
17 Apr - 19:04:49 10° NW 19:07:00 16° N 19:09:12 10° NE daylight
17 Apr - 20:42:04 10° NW 20:44:41 20° NNE 20:47:18 10° ENE visible
17 Apr - 22:18:29 10° NW 22:21:51 79° NE 22:25:13 10° ESE visible
17 Apr - 23:56:37 10° WSW 23:58:11 13° SW 23:59:44 10° SSW night (unlit)
18 Apr - 15:02:02 10° S 15:04:36 21° SE 15:07:11 10° E daylight
18 Apr - 16:37:51 10° WSW 16:41:07 50° NNW 16:44:25 10° NE daylight
18 Apr - 18:16:05 10° NW 18:18:28 18° N 18:20:50 10° NE daylight
18 Apr - 19:53:48 10° NW 19:56:10 18° N 19:58:31 10° NE visible
18 Apr - 21:30:14 10° NW 21:33:31 48° NNE 21:36:47 10° ESE visible
18 Apr - 23:07:25 10° W 23:10:04 22° SW 23:12:42 10° S visible
19 Apr - 14:15:05 10° SSE 14:16:28 12° SE 14:17:50 10° ESE daylight
19 Apr - 15:49:25 10° WSW 15:52:45 82° NW 15:56:07 10° NE daylight
19 Apr - 17:27:17 10° WNW 17:29:54 21° NNW 17:32:32 10° NE daylight
19 Apr - 19:05:24 10° NW 19:07:34 16° N 19:09:45 10° NE daylight
19 Apr - 20:41:59 10° NW 20:45:04 33° NNE 20:48:09 10° E visible
19 Apr - 22:18:43 10° WNW 22:21:51 37° SW 22:24:57 10° SSE visible
20 Apr - 15:01:07 10° SW 15:04:24 58° SE 15:07:43 10° ENE daylight
20 Apr - 16:38:28 10° W 16:41:21 26° NNW 16:44:14 10° NE daylight
20 Apr - 18:16:49 10° NW 18:18:56 16° N 18:21:03 10° NE daylight
20 Apr - 19:53:42 10° NW 19:56:32 25° NNE 19:59:23 10° ENE visible
20 Apr - 21:30:11 10° WNW 21:33:32 65° SW 21:36:51 10° SE visible
21 Apr - 14:13:03 10° SSW 14:16:04 33° SE 14:19:07 10° ENE daylight
21 Apr - 15:49:41 10° W 15:52:48 35° NNW 15:55:55 10° NE daylight
21 Apr - 17:28:03 10° NW 17:30:15 16° N 17:32:28 10° NE daylight
21 Apr - 19:05:21 10° NW 19:07:56 20° NNE 19:10:30 10° ENE daylight
21 Apr - 20:41:45 10° NW 20:45:07 74° NNE 20:48:27 10° ESE visible
21 Apr - 22:19:41 10° W 22:21:27 14° SW 22:23:13 10° SSW visible
22 Apr - 13:25:19 10° S 13:27:46 19° SE 13:30:14 10° E daylight
22 Apr - 15:00:58 10° WSW 15:04:15 53° NNW 15:07:33 10° NE daylight
22 Apr - 16:39:10 10° WNW 16:41:33 18° N 16:43:57 10° NE daylight
22 Apr - 18:16:55 10° NW 18:19:14 17° N 18:21:34 10° NE daylight
22 Apr - 19:53:21 10° NW 19:56:36 46° NNE 19:59:50 10° ESE daylight
22 Apr - 21:30:26 10° W 21:33:10 23° SW 21:35:53 10° S visible
23 Apr - 12:38:27 10° SSE 12:39:29 11° SE 12:40:30 10° ESE daylight
23 Apr - 14:12:23 10° SW 14:15:44 88° NNW 14:19:05 10° NE daylight
23 Apr - 15:50:11 10° WNW 15:52:50 21° NNW 15:55:30 10° NE daylight
23 Apr - 17:28:20 10° NW 17:30:29 16° N 17:32:38 10° NE daylight
23 Apr - 19:04:56 10° NW 19:08:00 31° NNE 19:11:02 10° E daylight
23 Apr - 20:41:37 10° WNW 20:44:47 40° SW 20:47:56 10° SSE visible
24 Apr - 13:23:58 10° SW 13:27:14 53° SE 13:30:30 10° ENE daylight
24 Apr - 15:01:13 10° W 15:04:07 27° NNW 15:07:03 10° NE daylight
24 Apr - 16:39:34 10° NW 16:41:41 16° N 16:43:48 10° NE daylight
24 Apr - 18:16:30 10° NW 18:19:18 24° NNE 18:22:05 10° ENE daylight
24 Apr - 19:52:57 10° WNW 19:56:18 71° SW 19:59:38 10° SE daylight
25 Apr - 12:35:47 10° SSW 12:38:45 30° SE 12:41:43 10° ENE daylight
25 Apr - 14:12:17 10° W 14:15:25 37° NNW 14:18:34 10° NE daylight
25 Apr - 15:50:38 10° NW 15:52:51 16° N 15:55:04 10° NE daylight
25 Apr - 17:27:59 10° NW 17:30:31 19° NNE 17:33:02 10° ENE daylight
25 Apr - 19:04:22 10° NW 19:07:43 68° NNE 19:11:03 10° ESE daylight
25 Apr - 20:42:07 10° W 20:44:05 15° SW 20:46:02 10° SSW visible
26 Apr - 11:47:59 10° S 11:50:17 18° SE 11:52:36 10° E daylight
26 Apr - 13:23:26 10° WSW 13:26:44 57° NNW 13:30:02 10° NE daylight
26 Apr - 15:01:34 10° WNW 15:03:59 18° NNW 15:06:25 10° NE daylight
26 Apr - 16:39:23 10° NW 16:41:39 17° N 16:43:56 10° NE daylight
26 Apr - 18:15:49 10° NW 18:19:02 43° NNE 18:22:14 10° ESE daylight
26 Apr - 19:52:49 10° WNW 19:55:37 25° SW 19:58:25 10° SSE daylight
